Date,Time,Wetness (Wet Dry or Ice),Wind Speed (m/s),Temperature (C),Humidity (%),Pressure (mb),Radiation (W/m^2)
2023-03-28,05:15:00,DRY,4.25,9.75,38.0,774.00,0.0
2023-03-28,05:20:00,DRY,4.43,9.70,38.0,774.00,0.0
2023-03-28,05:25:00,DRY,4.30,9.65,38.5,774.00,0.0
2023-03-28,05:30:00,DRY,4.27,9.63,39.0,774.00,0.0
2023-03-28,05:35:00,DRY,4.25,9.50,39.0,774.00,0.0
2023-03-28,05:40:00,DRY,4.83,9.73,37.7,774.33,0.0
2023-03-28,05:45:00,DRY,6.20,9.70,37.5,774.00,0.0
2023-03-28,05:50:00,DRY,5.27,9.77,37.3,774.33,0.0
2023-03-28,05:55:00,DRY,4.95,9.75,37.5,774.00,0.0
2023-03-28,06:00:00,DRY,5.37,9.67,37.3,774.33,0.0
2023-03-28,06:05:00,DRY,4.25,9.70,37.5,774.50,0.0
2023-03-28,06:10:00,DRY,4.27,9.60,38.0,774.67,0.0
2023-03-28,06:15:00,DRY,5.15,9.85,35.5,774.00,0.0
2023-03-28,06:20:00,DRY,4.87,9.73,36.3,774.00,0.0
2023-03-28,06:25:00,DRY,5.10,9.55,37.0,774.00,0.0
2023-03-28,06:30:00,DRY,4.90,9.63,38.0,774.67,0.0
2023-03-28,06:35:00,DRY,6.20,9.70,37.0,774.00,0.0
2023-03-28,06:40:00,DRY,5.07,9.73,37.0,774.33,0.0
2023-03-28,06:45:00,DRY,5.80,9.55,37.0,775.00,0.0
2023-03-28,06:50:00,DRY,5.70,9.77,36.7,775.00,0.0
2023-03-28,06:55:00,DRY,5.30,9.65,37.0,775.00,0.0
2023-03-28,07:00:00,DRY,5.57,9.63,38.0,775.00,0.0
2023-03-28,07:05:00,DRY,5.25,9.75,36.5,775.00,0.0
2023-03-28,07:10:00,DRY,4.83,9.67,36.7,775.00,1.7
2023-03-28,07:15:00,DRY,5.15,9.80,35.5,775.00,7.0
2023-03-28,07:20:00,DRY,5.33,9.63,36.0,775.00,14.0
2023-03-28,07:25:00,DRY,5.25,9.90,35.0,775.00,21.5
2023-03-28,07:30:00,DRY,5.50,9.87,35.3,775.00,28.3
2023-03-28,07:35:00,DRY,6.70,9.85,36.0,775.00,34.0
2023-03-28,07:40:00,DRY,7.00,9.80,36.3,775.00,40.3
2023-03-28,07:45:00,DRY,5.50,9.95,35.0,775.00,46.0
2023-03-28,07:50:00,DRY,4.93,9.97,35.3,775.00,51.7
2023-03-28,07:55:00,DRY,6.15,9.95,36.0,775.00,56.0
2023-03-28,08:00:00,DRY,5.03,10.23,34.3,775.00,61.3
2023-03-28,08:05:00,DRY,4.10,10.20,34.5,775.00,66.0
2023-03-28,08:10:00,DRY,5.70,10.30,34.7,775.00,71.7
2023-03-28,08:15:00,DRY,3.95,10.20,36.0,775.00,222.0
2023-03-28,08:20:00,DRY,6.57,10.40,35.0,775.00,259.0
2023-03-28,08:25:00,DRY,4.85,10.50,34.5,775.00,281.0
2023-03-28,08:30:00,DRY,6.37,10.50,35.3,775.00,303.7
2023-03-28,08:35:00,DRY,3.15,10.70,34.0,775.00,324.0
2023-03-28,08:40:00,DRY,5.13,10.63,35.0,775.00,346.7
2023-03-28,08:45:00,DRY,3.95,10.75,35.0,775.00,368.0
2023-03-28,08:50:00,DRY,5.00,10.80,35.0,775.00,390.3
2023-03-28,08:55:00,DRY,4.85,10.90,35.0,775.00,412.5
2023-03-28,09:00:00,DRY,4.90,10.97,35.0,775.00,433.7
2023-03-28,09:05:00,DRY,3.95,11.05,34.0,775.00,455.0
2023-03-28,09:10:00,DRY,4.63,11.17,34.0,775.00,474.3
2023-03-28,09:15:00,DRY,5.00,11.20,35.0,775.00,495.5
2023-03-28,09:20:00,DRY,3.33,11.37,32.7,775.00,515.7
2023-03-28,09:25:00,DRY,4.20,11.40,35.0,775.00,535.0
2023-03-28,09:30:00,DRY,5.57,11.40,34.7,775.00,555.3
2023-03-28,09:35:00,DRY,4.00,11.45,34.5,775.00,575.0
2023-03-28,09:40:00,DRY,4.07,11.57,34.0,775.00,593.0
2023-03-28,09:45:00,DRY,3.50,11.70,34.0,775.00,611.5
2023-03-28,09:50:00,DRY,4.77,11.77,33.0,775.67,630.3
2023-03-28,09:55:00,DRY,4.90,11.80,33.0,775.50,647.5
2023-03-28,10:00:00,DRY,5.63,11.87,32.7,775.67,666.0
2023-03-28,10:05:00,DRY,4.30,11.80,33.0,776.00,683.5
2023-03-28,10:10:00,DRY,3.67,12.00,32.0,775.67,700.7
2023-03-28,10:15:00,DRY,4.60,12.15,33.0,776.00,716.0
2023-03-28,10:20:00,DRY,4.80,12.17,32.0,776.00,732.0
2023-03-28,10:25:00,DRY,5.00,12.15,32.0,776.00,747.5
2023-03-28,10:30:00,DRY,4.53,12.17,31.0,776.00,762.7
2023-03-28,10:35:00,DRY,4.90,12.35,30.5,776.00,776.0
2023-03-28,10:40:00,DRY,4.57,12.40,30.7,776.00,791.3
2023-03-28,10:45:00,DRY,4.75,12.60,29.5,776.00,800.0
2023-03-28,10:50:00,DRY,6.13,12.23,31.0,776.00,800.3
2023-03-28,10:55:00,DRY,3.65,12.50,31.0,776.00,801.0
2023-03-28,11:00:00,DRY,3.57,12.77,30.7,776.00,800.3
2023-03-28,11:05:00,DRY,3.55,12.95,30.5,776.00,800.0
2023-03-28,11:10:00,DRY,3.20,12.73,30.7,776.00,800.3
2023-03-28,11:15:00,DRY,4.15,12.95,31.5,776.00,801.0
2023-03-28,11:20:00,DRY,4.80,13.05,30.5,776.00,800.5
2023-03-28,11:25:00,DRY,4.70,12.85,29.5,776.00,800.0
2023-03-28,11:30:00,DRY,5.30,13.07,29.7,776.00,800.0
2023-03-28,11:35:00,DRY,4.65,13.10,28.5,776.00,800.0
2023-03-28,11:40:00,DRY,2.57,13.20,28.3,776.00,800.0
2023-03-28,11:45:00,DRY,4.35,13.10,28.5,776.00,800.0
2023-03-28,11:50:00,DRY,3.43,13.17,29.0,776.00,800.0
2023-03-28,11:55:00,DRY,4.75,13.35,28.0,776.00,800.0
2023-03-28,12:00:00,DRY,4.63,13.47,28.3,776.00,800.0
2023-03-28,12:05:00,DRY,4.50,13.55,27.0,776.00,800.0
2023-03-28,12:10:00,DRY,4.57,13.47,27.7,776.00,800.3
2023-03-28,12:15:00,DRY,4.35,13.25,27.5,776.00,800.0
2023-03-28,12:20:00,DRY,4.43,13.63,27.3,776.00,800.3
2023-03-28,12:25:00,DRY,5.10,13.20,27.5,776.00,800.5
2023-03-28,12:30:00,DRY,4.77,13.33,27.3,776.00,800.3
2023-03-28,12:35:00,DRY,4.10,13.65,26.5,776.00,800.0
2023-03-28,12:40:00,DRY,4.73,13.83,26.3,776.00,800.3
2023-03-28,12:45:00,DRY,2.95,13.50,27.0,776.00,800.0
2023-03-28,12:50:00,DRY,4.80,13.50,27.0,776.00,800.0
2023-03-28,12:55:00,DRY,4.20,13.55,27.0,776.00,800.0
2023-03-28,13:00:00,DRY,6.47,13.30,28.0,775.00,800.0
2023-03-28,13:05:00,DRY,2.95,13.40,26.0,776.00,800.0
2023-03-28,13:10:00,DRY,5.60,13.70,27.0,776.00,800.3
2023-03-28,13:15:00,DRY,4.40,13.85,26.0,776.00,800.0
2023-03-28,13:20:00,DRY,4.53,13.53,26.7,775.33,800.0
2023-03-28,13:25:00,DRY,4.40,13.60,27.0,775.00,800.5
2023-03-28,13:30:00,DRY,6.80,13.65,26.0,775.00,800.5
2023-03-28,13:35:00,DRY,3.70,13.70,27.0,775.00,800.0
2023-03-28,13:40:00,DRY,5.17,13.67,26.7,775.00,800.0
2023-03-28,13:45:00,DRY,4.60,13.60,26.0,775.00,800.0
2023-03-28,13:50:00,DRY,4.40,13.53,26.0,775.00,800.3
2023-03-28,13:55:00,DRY,3.40,13.75,27.0,775.00,800.0
2023-03-28,14:00:00,DRY,5.13,13.70,26.3,775.00,800.7
2023-03-28,14:05:00,DRY,4.55,13.95,26.5,775.00,800.5
2023-03-28,14:10:00,DRY,5.57,13.67,26.3,775.00,800.3
2023-03-28,14:15:00,DRY,3.75,13.60,26.5,775.00,800.0
2023-03-28,14:20:00,DRY,4.00,13.63,26.3,775.00,800.0
2023-03-28,14:25:00,DRY,5.20,13.40,26.0,775.00,800.0
2023-03-28,14:30:00,DRY,5.20,13.23,27.0,775.00,800.7
2023-03-28,14:35:00,DRY,4.70,13.45,26.5,775.00,800.0
2023-03-28,14:40:00,DRY,6.33,13.50,26.0,775.00,800.3
2023-03-28,14:45:00,DRY,4.85,13.50,27.0,775.00,800.0
2023-03-28,14:50:00,DRY,5.53,13.60,26.3,775.00,800.3
2023-03-28,14:55:00,DRY,4.00,13.40,26.5,775.00,800.0
2023-03-28,15:00:00,DRY,4.57,13.73,26.3,775.00,800.3
2023-03-28,15:05:00,DRY,4.65,13.70,26.0,775.00,800.5
2023-03-28,15:10:00,DRY,4.63,13.53,26.7,775.00,800.3
2023-03-28,15:15:00,DRY,4.55,13.30,27.0,775.00,800.5
2023-03-28,15:20:00,DRY,3.80,13.73,26.3,775.00,800.0
2023-03-28,15:25:00,DRY,5.40,13.65,26.0,775.00,801.0
2023-03-28,15:30:00,DRY,4.13,13.33,26.0,775.00,800.3
2023-03-28,15:35:00,DRY,4.85,13.40,26.0,775.00,800.5
2023-03-28,15:40:00,DRY,5.57,13.17,26.3,775.00,799.3
2023-03-28,15:45:00,DRY,4.70,13.10,26.5,775.00,789.5
2023-03-28,15:50:00,DRY,5.83,13.13,26.7,775.00,775.7
2023-03-28,15:55:00,DRY,5.95,13.25,26.5,775.00,760.5
2023-03-28,16:00:00,DRY,6.07,13.13,26.7,775.00,744.7
2023-03-28,16:05:00,DRY,5.05,13.15,27.0,775.00,729.0
2023-03-28,16:10:00,DRY,5.63,13.27,27.0,775.00,712.3
2023-03-28,16:15:00,DRY,4.70,13.20,28.0,775.00,694.5
2023-03-28,16:20:00,DRY,4.33,12.97,27.7,775.00,679.3
2023-03-28,16:25:00,DRY,4.80,12.90,27.5,775.00,664.0
2023-03-28,16:30:00,DRY,4.90,13.00,27.7,775.00,645.3
2023-03-28,16:35:00,DRY,5.00,12.90,27.5,775.00,627.5
2023-03-28,16:40:00,DRY,4.57,12.77,28.0,774.67,609.3
2023-03-28,16:45:00,DRY,4.40,12.80,27.0,775.00,595.0
2023-03-28,16:50:00,DRY,5.37,12.73,27.3,775.00,571.3
2023-03-28,16:55:00,DRY,5.40,12.65,28.5,775.00,552.5
2023-03-28,17:00:00,DRY,5.90,12.77,28.0,775.00,533.3
2023-03-28,17:05:00,DRY,4.95,12.70,28.0,775.00,514.0
2023-03-28,17:10:00,DRY,5.37,12.53,28.0,775.00,494.0
2023-03-28,17:15:00,DRY,4.90,12.40,28.0,775.00,475.0
2023-03-28,17:20:00,DRY,4.90,12.30,28.0,774.33,455.0
2023-03-28,17:25:00,DRY,6.80,12.30,29.0,774.50,435.5
2023-03-28,17:30:00,DRY,5.37,12.20,28.3,774.33,414.3
2023-03-28,17:35:00,DRY,5.30,12.10,28.0,774.50,393.5
2023-03-28,17:40:00,DRY,4.80,12.13,28.7,774.67,372.3
2023-03-28,17:45:00,DRY,5.40,12.00,28.5,774.50,351.5
2023-03-28,17:50:00,DRY,4.87,12.03,28.7,774.67,329.0
2023-03-28,17:55:00,DRY,5.85,11.90,29.0,775.00,308.5
2023-03-28,18:00:00,DRY,6.07,11.77,29.0,774.67,286.3
2023-03-28,18:05:00,DRY,5.75,11.65,29.0,774.50,265.5
2023-03-28,18:10:00,DRY,5.63,11.57,29.3,775.00,243.3
2023-03-28,18:15:00,DRY,5.50,11.50,29.5,775.00,222.5
2023-03-28,18:20:00,DRY,6.03,11.40,29.0,774.67,201.7
2023-03-28,18:25:00,DRY,5.85,11.35,30.0,775.00,180.5
2023-03-28,18:30:00,DRY,5.07,11.30,29.3,775.00,160.0
2023-03-28,18:35:00,DRY,5.40,11.15,29.5,775.00,139.5
2023-03-28,18:40:00,DRY,5.27,11.03,29.3,775.00,69.7
2023-03-28,18:45:00,DRY,7.30,10.90,30.0,775.00,43.5
2023-03-28,18:50:00,DRY,5.80,10.83,30.0,775.00,39.0
2023-03-28,18:55:00,DRY,6.80,10.70,30.0,775.00,34.0
2023-03-28,19:00:00,DRY,6.13,10.57,30.0,775.00,28.3
2023-03-28,19:05:00,DRY,4.65,10.50,30.0,775.00,23.0
2023-03-28,19:10:00,DRY,5.27,10.43,30.0,775.00,16.7
2023-03-28,19:15:00,DRY,4.85,10.25,30.5,775.00,10.0
2023-03-28,19:20:00,DRY,6.67,10.23,30.3,775.00,4.7
2023-03-28,19:25:00,DRY,8.40,10.20,30.0,775.00,0.5
2023-03-28,19:30:00,DRY,5.30,10.13,30.0,775.00,0.0
2023-03-28,19:35:00,DRY,6.70,10.05,29.0,775.00,0.0
2023-03-28,19:40:00,DRY,6.37,10.00,29.0,775.00,0.0
2023-03-28,19:45:00,DRY,6.60,10.00,29.0,775.00,0.0
2023-03-28,19:50:00,DRY,4.33,10.00,29.3,775.00,0.0
2023-03-28,19:55:00,DRY,7.70,10.00,30.0,775.00,0.0
2023-03-28,20:00:00,DRY,5.43,9.97,30.0,775.00,0.0
2023-03-28,20:05:00,DRY,5.45,9.95,30.0,775.00,0.0
2023-03-28,20:10:00,DRY,6.47,9.97,30.0,775.00,0.0
2023-03-28,20:15:00,DRY,9.45,9.95,30.0,775.00,0.0
2023-03-28,20:20:00,DRY,6.73,9.90,29.7,775.00,0.0
2023-03-28,20:25:00,DRY,8.50,9.95,29.5,775.00,0.0
2023-03-28,20:30:00,DRY,7.07,9.97,30.0,775.00,0.0
2023-03-28,20:35:00,DRY,7.65,9.90,30.0,775.00,0.0
2023-03-28,20:40:00,DRY,6.00,9.90,29.3,775.00,0.0
2023-03-28,20:45:00,DRY,6.45,9.90,29.5,775.00,0.0
2023-03-28,20:50:00,DRY,6.50,9.87,29.0,775.00,0.0
2023-03-28,20:55:00,DRY,6.35,9.80,29.0,775.00,0.0
2023-03-28,21:00:00,DRY,7.67,9.80,29.0,775.33,0.0
2023-03-28,21:05:00,DRY,5.75,9.85,29.0,775.50,0.0
2023-03-28,21:10:00,DRY,5.67,9.77,28.7,775.00,0.0
2023-03-28,21:15:00,DRY,6.55,9.70,28.5,776.00,0.0
2023-03-28,21:20:00,DRY,6.47,9.70,28.7,775.33,0.0
2023-03-28,21:25:00,DRY,7.85,9.75,28.0,775.50,0.0
2023-03-28,21:30:00,DRY,6.17,9.73,28.0,776.00,0.0
2023-03-28,21:35:00,DRY,5.95,9.70,28.0,776.00,0.0
2023-03-28,21:40:00,DRY,6.07,9.60,28.0,776.00,0.0
2023-03-28,21:45:00,DRY,6.10,9.60,28.0,776.00,0.0
2023-03-28,21:50:00,DRY,5.27,9.60,27.0,776.00,0.0
2023-03-28,21:55:00,DRY,8.05,9.70,27.0,776.00,0.0
2023-03-28,22:00:00,DRY,6.87,9.67,26.7,776.00,0.0
2023-03-28,22:05:00,DRY,7.15,9.70,26.0,776.00,0.0
2023-03-28,22:10:00,DRY,5.57,9.63,25.7,776.00,0.0
2023-03-28,22:15:00,DRY,7.75,9.65,26.5,776.00,0.0
2023-03-28,22:20:00,DRY,6.80,9.60,27.0,776.00,0.0
2023-03-28,22:25:00,DRY,8.40,9.65,26.5,776.00,0.0
2023-03-28,22:30:00,DRY,5.83,9.70,26.7,776.00,0.0
2023-03-28,22:35:00,DRY,5.00,9.55,26.5,776.00,0.0
2023-03-28,22:40:00,DRY,5.73,9.60,27.0,776.00,0.0
2023-03-28,22:45:00,DRY,8.65,9.65,27.5,776.00,0.0
2023-03-28,22:50:00,DRY,6.93,9.80,28.0,776.00,0.0
2023-03-28,22:55:00,DRY,7.25,9.75,28.0,776.00,0.0
2023-03-28,23:00:00,DRY,8.43,9.77,28.0,776.00,0.0
2023-03-28,23:05:00,DRY,6.10,9.80,28.0,776.00,0.0
2023-03-28,23:10:00,DRY,7.50,9.73,28.0,776.00,0.0
2023-03-28,23:15:00,DRY,7.90,9.70,28.0,776.00,0.0
2023-03-28,23:20:00,DRY,7.90,9.70,28.0,776.00,0.0
2023-03-28,23:25:00,DRY,8.10,9.80,29.0,776.00,0.0
2023-03-28,23:30:00,DRY,7.80,9.80,28.7,776.00,0.0
2023-03-28,23:35:00,DRY,7.20,9.85,29.0,776.00,0.0
2023-03-28,23:40:00,DRY,8.13,9.80,28.7,776.00,0.0
2023-03-28,23:45:00,DRY,7.45,9.80,29.0,776.00,0.0
2023-03-28,23:50:00,DRY,7.20,9.80,28.3,776.00,0.0
2023-03-28,23:55:00,DRY,8.10,9.75,28.0,776.00,0.0
2023-03-29,00:00:00,DRY,6.13,9.73,28.0,776.00,0.0
2023-03-29,00:05:00,DRY,5.50,9.60,28.5,776.00,0.0
2023-03-29,00:10:00,DRY,6.60,9.60,29.0,776.00,0.0
2023-03-29,00:15:00,DRY,6.25,9.75,29.0,776.00,0.0
2023-03-29,00:20:00,DRY,9.30,9.73,29.0,776.00,0.0
2023-03-29,00:25:00,DRY,7.80,9.80,29.0,776.00,0.0
2023-03-29,00:30:00,DRY,7.53,9.80,29.0,776.00,0.0
2023-03-29,00:35:00,DRY,6.90,9.80,30.0,776.00,0.0
2023-03-29,00:40:00,DRY,6.80,9.77,30.0,776.00,0.0
2023-03-29,00:45:00,DRY,6.70,9.80,29.5,776.00,0.0
2023-03-29,00:50:00,DRY,6.47,9.83,30.0,776.00,0.0
2023-03-29,00:55:00,DRY,6.90,9.75,30.0,776.00,0.0
2023-03-29,01:00:00,DRY,7.10,9.63,29.7,776.00,0.0
2023-03-29,01:05:00,DRY,6.55,9.70,30.0,776.00,0.0
2023-03-29,01:10:00,DRY,9.33,9.73,30.0,776.00,0.0
2023-03-29,01:15:00,DRY,5.70,9.70,30.0,776.00,0.0
2023-03-29,01:20:00,DRY,6.23,9.70,30.0,775.67,0.0
2023-03-29,01:25:00,DRY,6.45,9.70,30.0,776.00,0.0
2023-03-29,01:30:00,DRY,7.63,9.63,29.3,776.00,0.0
2023-03-29,01:35:00,DRY,8.15,9.65,29.0,776.00,0.0
2023-03-29,01:40:00,DRY,6.77,9.57,30.0,776.00,0.0
2023-03-29,01:45:00,DRY,6.85,9.55,30.0,776.00,0.0
2023-03-29,01:50:00,DRY,5.77,9.53,30.0,776.00,0.0
2023-03-29,01:55:00,DRY,7.65,9.50,30.0,775.50,0.0
2023-03-29,02:00:00,DRY,6.77,9.50,29.3,775.67,0.0
2023-03-29,02:05:00,DRY,7.05,9.50,30.0,775.50,0.0
2023-03-29,02:10:00,DRY,8.33,9.53,30.0,775.00,0.0
2023-03-29,02:15:00,DRY,9.05,9.55,30.0,775.00,0.0
2023-03-29,02:20:00,DRY,6.50,9.53,30.0,775.33,0.0
2023-03-29,02:25:00,DRY,7.65,9.50,30.5,775.00,0.0
2023-03-29,02:30:00,DRY,7.37,9.57,30.7,775.00,0.0
2023-03-29,02:35:00,DRY,7.20,9.45,30.5,775.00,0.0
2023-03-29,02:40:00,DRY,8.23,9.50,29.7,775.00,0.0
2023-03-29,02:45:00,DRY,8.25,9.45,28.5,775.00,0.0
2023-03-29,02:50:00,DRY,8.23,9.50,29.3,775.00,0.0
2023-03-29,02:55:00,DRY,7.45,9.35,29.0,775.00,0.0
2023-03-29,03:00:00,DRY,6.70,9.37,29.0,775.00,0.0
2023-03-29,03:05:00,DRY,7.70,9.40,30.0,775.00,0.0
2023-03-29,03:10:00,DRY,7.00,9.30,30.0,775.00,0.0
2023-03-29,03:15:00,DRY,8.15,9.35,30.0,775.00,0.0
2023-03-29,03:20:00,DRY,7.57,9.37,30.3,775.00,0.0
2023-03-29,03:25:00,DRY,8.25,9.30,31.0,775.00,0.0
2023-03-29,03:30:00,DRY,7.07,9.33,31.3,775.00,0.0
2023-03-29,03:35:00,DRY,6.40,9.30,32.0,775.00,0.0
2023-03-29,03:40:00,DRY,7.00,9.40,32.0,775.00,0.0
2023-03-29,03:45:00,DRY,7.80,9.25,31.5,775.00,0.0
2023-03-29,03:50:00,DRY,5.93,9.27,32.0,775.00,0.0
2023-03-29,03:55:00,DRY,5.40,9.30,32.0,775.00,0.0
2023-03-29,04:00:00,DRY,5.30,9.27,32.0,775.00,0.0
2023-03-29,04:05:00,DRY,7.35,9.20,32.0,775.00,0.0
2023-03-29,04:10:00,DRY,5.33,9.27,32.0,775.00,0.0
2023-03-29,04:15:00,DRY,5.40,9.10,32.0,775.00,0.0
2023-03-29,04:20:00,DRY,5.57,9.07,32.0,775.00,0.0
2023-03-29,04:25:00,DRY,3.90,9.10,32.0,775.00,0.0
2023-03-29,04:30:00,DRY,6.47,9.10,32.0,775.00,0.0
2023-03-29,04:35:00,DRY,3.80,9.20,32.0,775.00,0.0
2023-03-29,04:40:00,DRY,6.67,9.10,30.3,775.00,0.0
2023-03-29,04:45:00,DRY,5.95,8.90,30.5,775.00,0.0
2023-03-29,04:50:00,DRY,5.77,8.97,32.0,775.00,0.0
2023-03-29,04:55:00,DRY,5.60,9.10,32.0,775.00,0.0
2023-03-29,05:00:00,DRY,6.30,9.03,32.0,775.00,0.0
2023-03-29,05:05:00,DRY,6.40,9.05,31.5,775.00,0.0
2023-03-29,05:10:00,DRY,6.93,9.03,32.0,775.00,0.0
2023-03-29,05:15:00,DRY,5.55,9.00,31.0,775.00,0.0
2023-03-29,05:20:00,DRY,6.07,9.03,32.0,775.00,0.0
2023-03-29,05:25:00,DRY,6.70,9.05,32.5,775.00,0.0
2023-03-29,05:30:00,DRY,6.87,9.20,32.0,775.00,0.0
2023-03-29,05:35:00,DRY,4.95,9.15,32.0,775.00,0.0
2023-03-29,05:40:00,DRY,7.37,9.13,32.0,775.00,0.0
2023-03-29,05:45:00,DRY,6.80,9.15,32.0,775.00,0.0
2023-03-29,05:50:00,DRY,6.33,9.03,31.3,775.00,0.0
2023-03-29,05:55:00,DRY,7.05,9.05,32.0,775.00,0.0
2023-03-29,06:00:00,DRY,7.27,9.20,31.0,775.00,0.0
2023-03-29,06:05:00,DRY,9.25,9.20,31.0,775.00,0.0
2023-03-29,06:10:00,DRY,6.37,9.13,31.0,775.33,0.0
2023-03-29,06:15:00,DRY,6.45,9.15,32.0,775.00,0.0
2023-03-29,06:20:00,DRY,5.97,9.13,29.7,775.33,0.0
2023-03-29,06:25:00,DRY,7.25,9.10,30.5,776.00,0.0
2023-03-29,06:30:00,DRY,7.13,9.17,30.3,775.67,0.0
2023-03-29,06:35:00,DRY,6.45,9.10,31.5,776.00,0.0
2023-03-29,06:40:00,DRY,6.90,9.10,30.3,776.00,0.0
2023-03-29,06:45:00,DRY,6.90,9.15,32.0,776.00,0.0
2023-03-29,06:50:00,DRY,5.37,9.07,31.7,776.00,0.0
2023-03-29,06:55:00,DRY,9.15,9.15,32.0,776.00,0.0
2023-03-29,07:00:00,DRY,7.73,9.17,31.3,776.00,0.0
2023-03-29,07:05:00,DRY,6.70,9.10,31.0,776.00,0.0
2023-03-29,07:10:00,DRY,5.00,9.10,31.3,776.00,3.3
2023-03-29,07:15:00,DRY,7.85,9.10,32.5,776.00,8.5
2023-03-29,07:20:00,DRY,6.10,9.13,32.3,776.00,13.3
2023-03-29,07:25:00,DRY,7.70,9.20,33.0,776.00,17.5
2023-03-29,07:30:00,DRY,5.63,9.30,31.0,776.00,20.7
2023-03-29,07:35:00,DRY,5.65,9.25,29.5,776.00,24.5
2023-03-29,07:40:00,DRY,6.23,9.33,31.7,776.00,28.7
2023-03-29,07:45:00,DRY,5.65,9.40,30.0,776.00,31.5
2023-03-29,07:50:00,DRY,6.17,9.40,29.7,776.00,34.7
2023-03-29,07:55:00,DRY,6.45,9.40,30.0,776.00,37.0
2023-03-29,08:00:00,DRY,5.70,9.50,29.0,776.00,39.7
2023-03-29,08:05:00,DRY,6.90,9.50,29.5,776.00,41.0
2023-03-29,08:10:00,DRY,8.00,9.57,28.7,776.00,45.0
2023-03-29,08:15:00,DRY,6.45,9.60,28.5,776.00,260.0
2023-03-29,08:20:00,DRY,6.87,9.63,27.7,776.00,288.3
2023-03-29,08:25:00,DRY,4.55,9.85,30.0,776.00,311.0
2023-03-29,08:30:00,DRY,6.60,9.90,28.7,776.33,338.0
2023-03-29,08:35:00,DRY,7.05,10.00,29.5,776.00,358.0
2023-03-29,08:40:00,DRY,6.53,10.07,29.0,776.33,379.3
2023-03-29,08:45:00,DRY,6.45,10.15,29.5,777.00,403.0
2023-03-29,08:50:00,DRY,5.97,10.13,29.0,776.67,423.7
2023-03-29,08:55:00,DRY,6.20,10.20,28.0,777.00,444.5
2023-03-29,09:00:00,DRY,8.23,10.33,28.3,776.67,466.3
2023-03-29,09:05:00,DRY,4.20,10.45,27.5,777.00,487.0
2023-03-29,09:10:00,DRY,5.83,10.53,28.0,777.00,510.0
2023-03-29,09:15:00,DRY,6.90,10.55,27.0,777.00,530.0
2023-03-29,09:20:00,DRY,7.00,10.67,26.3,777.00,550.3
2023-03-29,09:25:00,DRY,5.30,10.70,25.5,777.00,570.5
2023-03-29,09:30:00,DRY,5.20,10.83,25.0,777.00,588.3
2023-03-29,09:35:00,DRY,6.65,10.85,25.5,777.00,607.0
2023-03-29,09:40:00,DRY,7.30,10.90,25.7,777.00,629.3
2023-03-29,09:45:00,DRY,5.50,10.90,25.5,777.00,647.5
2023-03-29,09:50:00,DRY,5.67,11.07,25.0,777.00,665.3
2023-03-29,09:55:00,DRY,7.30,11.00,25.0,777.00,683.0
2023-03-29,10:00:00,DRY,4.43,11.23,24.7,777.00,701.3
2023-03-29,10:05:00,DRY,6.40,11.25,24.0,777.00,718.5
2023-03-29,10:10:00,DRY,5.87,11.23,23.3,777.00,738.7
2023-03-29,10:15:00,DRY,6.60,11.35,23.0,777.00,753.0
2023-03-29,10:20:00,DRY,6.17,11.23,22.7,777.00,770.7
2023-03-29,10:25:00,DRY,3.55,11.35,22.5,777.00,786.5
2023-03-29,10:30:00,DRY,5.63,11.47,21.3,777.00,798.3
2023-03-29,10:35:00,DRY,6.55,11.60,21.0,777.00,800.0
2023-03-29,10:40:00,DRY,5.60,11.73,20.3,777.00,800.0
2023-03-29,10:45:00,DRY,4.30,11.70,20.0,777.00,801.0
2023-03-29,10:50:00,DRY,6.13,11.80,19.7,777.33,800.0
2023-03-29,10:55:00,DRY,8.95,11.60,18.5,777.50,800.0
2023-03-29,11:00:00,DRY,3.23,11.87,20.3,777.67,800.3
2023-03-29,11:05:00,DRY,5.70,12.20,18.5,777.50,801.0
2023-03-29,11:10:00,DRY,4.60,12.00,19.0,777.67,800.0
2023-03-29,11:15:00,DRY,5.45,12.15,19.5,778.00,800.0
2023-03-29,11:20:00,DRY,4.13,12.10,21.7,778.00,800.0
2023-03-29,11:25:00,DRY,4.10,12.15,21.0,777.00,800.0
2023-03-29,11:30:00,DRY,4.83,12.17,22.0,778.00,800.0
2023-03-29,11:35:00,DRY,5.25,12.30,23.5,777.50,800.0
2023-03-29,11:40:00,DRY,4.63,12.40,24.0,777.67,800.0
2023-03-29,11:45:00,DRY,3.45,12.50,25.5,778.00,800.0
2023-03-29,11:50:00,DRY,4.13,12.43,25.0,778.00,800.0
2023-03-29,11:55:00,DRY,2.55,12.55,25.5,778.00,800.0
2023-03-29,12:00:00,DRY,5.30,12.80,24.7,777.33,800.0
2023-03-29,12:05:00,DRY,5.05,12.95,26.5,778.00,800.0
2023-03-29,12:10:00,DRY,2.90,13.47,23.0,778.00,800.3
2023-03-29,12:15:00,DRY,2.60,13.70,23.5,778.00,800.0
2023-03-29,12:20:00,DRY,2.70,14.00,22.0,778.00,800.0
2023-03-29,12:25:00,DRY,3.45,13.75,23.0,777.50,800.5
2023-03-29,12:30:00,DRY,3.10,13.50,23.3,778.00,800.0
2023-03-29,12:35:00,DRY,3.00,13.40,22.5,778.00,800.5
2023-03-29,12:40:00,DRY,1.83,14.03,20.7,778.00,800.3
2023-03-29,12:45:00,DRY,1.55,13.75,23.0,778.00,800.0
2023-03-29,12:50:00,DRY,2.67,14.20,23.7,778.00,800.3
2023-03-29,12:55:00,DRY,4.30,14.40,22.0,778.00,800.0
2023-03-29,13:00:00,DRY,3.20,13.90,22.0,778.00,800.0
2023-03-29,13:05:00,DRY,3.50,13.70,23.5,778.00,800.5
2023-03-29,13:10:00,DRY,4.80,14.03,22.0,778.00,800.7
2023-03-29,13:15:00,DRY,2.40,14.25,23.5,778.00,800.0
2023-03-29,13:20:00,DRY,2.10,14.47,23.3,778.00,800.0
2023-03-29,13:25:00,DRY,3.50,14.75,23.5,778.00,800.0
2023-03-29,13:30:00,DRY,3.95,14.95,22.5,778.00,800.5
2023-03-29,13:35:00,DRY,3.70,14.50,21.0,778.00,800.0
2023-03-29,13:40:00,DRY,2.67,14.60,21.7,778.00,800.0
2023-03-29,13:45:00,DRY,5.10,15.00,20.5,777.00,800.0
2023-03-29,13:50:00,DRY,4.07,14.53,21.0,777.33,800.3
2023-03-29,13:55:00,DRY,4.70,14.50,19.0,777.00,800.0
2023-03-29,14:00:00,DRY,3.77,14.23,22.3,777.67,800.0
2023-03-29,14:05:00,DRY,2.00,14.80,20.5,777.50,800.5
2023-03-29,14:10:00,DRY,2.17,15.07,21.3,777.67,800.3
2023-03-29,14:15:00,DRY,1.90,15.35,20.0,778.00,800.0
2023-03-29,14:20:00,DRY,2.57,14.93,20.3,778.00,800.0
2023-03-29,14:25:00,DRY,1.30,14.50,22.5,778.00,800.0
2023-03-29,14:30:00,DRY,1.50,14.73,20.7,778.00,800.0
2023-03-29,14:35:00,DRY,1.45,14.90,20.0,778.00,800.5
2023-03-29,14:40:00,DRY,2.43,14.07,21.0,778.00,800.7
2023-03-29,14:45:00,DRY,3.25,14.05,20.5,777.00,800.5
2023-03-29,14:50:00,DRY,1.87,14.30,20.7,777.67,800.3
2023-03-29,14:55:00,DRY,0.60,14.40,20.0,778.00,800.5
2023-03-29,15:00:00,DRY,1.67,14.70,20.3,777.00,800.7
2023-03-29,15:05:00,DRY,2.30,14.95,19.0,777.00,800.5
2023-03-29,15:10:00,DRY,2.63,13.83,20.3,777.00,800.7
2023-03-29,15:15:00,DRY,1.60,14.35,20.0,777.00,800.5
2023-03-29,15:20:00,DRY,1.57,14.37,19.3,777.00,800.0
2023-03-29,15:25:00,DRY,2.30,13.75,20.5,777.00,800.0
2023-03-29,15:30:00,DRY,1.77,14.07,20.0,777.00,800.3
2023-03-29,15:35:00,DRY,1.80,13.80,20.0,777.00,800.5
2023-03-29,15:40:00,DRY,2.00,13.73,21.0,777.00,799.7
2023-03-29,15:45:00,DRY,1.85,14.35,20.0,777.00,789.5
2023-03-29,15:50:00,DRY,1.73,14.00,21.0,777.00,774.7
2023-03-29,15:55:00,DRY,1.85,13.60,20.5,777.00,757.0
2023-03-29,16:00:00,DRY,1.73,13.53,21.3,777.00,742.3
2023-03-29,16:05:00,DRY,1.75,13.90,20.5,777.00,724.5
2023-03-29,16:10:00,DRY,1.37,14.33,20.0,777.00,709.7
2023-03-29,16:15:00,DRY,1.95,14.85,19.5,777.00,697.0
2023-03-29,16:20:00,DRY,0.97,15.53,16.3,777.00,678.3
2023-03-29,16:25:00,DRY,2.60,15.70,16.0,777.00,663.5
2023-03-29,16:30:00,DRY,1.63,15.67,16.7,777.00,648.0
2023-03-29,16:35:00,DRY,2.60,15.40,14.5,777.00,634.5
2023-03-29,16:40:00,DRY,1.13,15.13,18.7,777.00,614.3
2023-03-29,16:45:00,DRY,1.80,15.15,17.5,777.00,594.5
2023-03-29,16:50:00,DRY,1.67,15.10,16.7,778.00,577.3
2023-03-29,16:55:00,DRY,1.75,15.10,14.5,778.00,560.5
2023-03-29,17:00:00,DRY,1.50,15.13,16.0,778.00,539.0
2023-03-29,17:05:00,DRY,1.40,15.35,17.0,778.00,520.0
2023-03-29,17:10:00,DRY,1.37,15.27,18.7,777.67,498.0
2023-03-29,17:15:00,DRY,2.05,15.30,15.5,778.00,477.0
2023-03-29,17:20:00,DRY,1.17,15.00,14.7,778.00,459.7
2023-03-29,17:25:00,DRY,1.30,15.05,15.0,778.00,438.0
2023-03-29,17:30:00,DRY,1.37,14.97,14.7,778.00,419.0
2023-03-29,17:35:00,DRY,0.90,14.75,14.5,778.00,397.0
2023-03-29,17:40:00,DRY,1.30,15.23,14.0,778.00,377.0
2023-03-29,17:45:00,DRY,0.75,15.45,14.0,778.00,355.0
2023-03-29,17:50:00,DRY,1.20,14.97,14.0,778.00,335.3
2023-03-29,17:55:00,DRY,0.65,14.85,14.0,778.00,311.5
2023-03-29,18:00:00,DRY,0.87,15.23,14.0,778.00,290.3
2023-03-29,18:05:00,DRY,1.35,15.05,14.5,778.00,267.0
2023-03-29,18:10:00,DRY,1.77,14.77,15.3,778.00,243.7
2023-03-29,18:15:00,DRY,1.00,14.75,16.5,778.00,217.5
2023-03-29,18:20:00,DRY,1.37,14.80,16.3,778.00,198.7
2023-03-29,18:25:00,DRY,1.35,14.75,16.5,778.00,174.0
2023-03-29,18:30:00,DRY,1.17,14.33,17.0,778.00,153.3
2023-03-29,18:35:00,DRY,1.20,14.30,16.0,778.00,133.5
2023-03-29,18:40:00,DRY,1.63,13.73,17.3,778.00,69.3
2023-03-29,18:45:00,DRY,0.90,13.55,18.0,778.00,43.5
2023-03-29,18:50:00,DRY,1.30,13.57,18.0,778.00,39.0
2023-03-29,18:55:00,DRY,1.20,13.40,18.0,778.00,34.0
2023-03-29,19:00:00,DRY,0.77,13.37,18.3,778.00,28.0
2023-03-29,19:05:00,DRY,1.40,13.15,18.0,778.00,22.0
2023-03-29,19:10:00,DRY,0.77,13.00,19.0,778.00,16.3
2023-03-29,19:15:00,DRY,1.05,12.65,18.0,778.00,9.5
2023-03-29,19:20:00,DRY,1.27,12.63,18.0,778.00,4.3
2023-03-29,19:25:00,DRY,0.80,12.70,17.0,778.00,0.0
2023-03-29,19:30:00,DRY,0.40,12.57,17.7,778.00,0.0
2023-03-29,19:35:00,DRY,1.05,12.45,17.5,778.00,0.0